Contract 0xc1fae48ae1225fce8698503d5bb1378db5ce14f6 3

Txn Hash Method
Block
From
To
Value [Txn Fee]
0xf29607c7a4bf44d557d57e478e83c35e58b3efdab1c15b1a4a532c965bab668bUpdate13427292022-06-30 12:11:001 hr 47 mins ago0x45e426d9b501f380db0b1c323b57b0b7cf380cf9 IN  0xc1fae48ae1225fce8698503d5bb1378db5ce14f60 GLMR0.0141814
0x3a52d6c374ba23ee7d3c7c87ea328be8d4d697374bf9763e5cb57e173571569dUpdate13425502022-06-30 11:32:182 hrs 26 mins ago0x45e426d9b501f380db0b1c323b57b0b7cf380cf9 IN  0xc1fae48ae1225fce8698503d5bb1378db5ce14f60 GLMR0.0141814
0x5486daaeb63030aa86db842ba634f8e91633977f28e02a7d2a5f3bf518607df7Update13425192022-06-30 11:25:362 hrs 33 mins ago0x45e426d9b501f380db0b1c323b57b0b7cf380cf9 IN  0xc1fae48ae1225fce8698503d5bb1378db5ce14f60 GLMR0.014179
0x621d4641024a4a44ff91d1ea70855599f0aa7f88a60f59b0ea84e064baaef734Update13423622022-06-30 10:52:003 hrs 6 mins ago0x45e426d9b501f380db0b1c323b57b0b7cf380cf9 IN  0xc1fae48ae1225fce8698503d5bb1378db5ce14f60 GLMR0.0141814
0xd975baa4578dd68049e1d49482e144a3892b9ec69b4ae628de240f78633c579aUpdate13423142022-06-30 10:41:483 hrs 16 mins ago0x45e426d9b501f380db0b1c323b57b0b7cf380cf9 IN  0xc1fae48ae1225fce8698503d5bb1378db5ce14f60 GLMR0.014179
0xfdf5272ee987a51028134e6786f76178152295787678ae66f631f5c6ea97b475Update13421632022-06-30 10:09:543 hrs 48 mins ago0x45e426d9b501f380db0b1c323b57b0b7cf380cf9 IN  0xc1fae48ae1225fce8698503d5bb1378db5ce14f60 GLMR0.0141718
0x5566a9f68efdb74d5bdc09b95548630b2f2d01bb639050e18312e73eb5fb8aa5Update13421392022-06-30 10:04:483 hrs 53 mins ago0x45e426d9b501f380db0b1c323b57b0b7cf380cf9 IN  0xc1fae48ae1225fce8698503d5bb1378db5ce14f60 GLMR0.0141766
0xab804229ae1e2eaed03810db932baab55c97a89465930c5747e5c30a7b56e52dUpdate13421232022-06-30 10:01:303 hrs 57 mins ago0x45e426d9b501f380db0b1c323b57b0b7cf380cf9 IN  0xc1fae48ae1225fce8698503d5bb1378db5ce14f60 GLMR0.0141848
0xfa30d6a6018bc5e11c05952520b311a8ae539ebfe3ec2a13bf4be4e86389bf5dUpdate13420802022-06-30 9:52:124 hrs 6 mins ago0x45e426d9b501f380db0b1c323b57b0b7cf380cf9 IN  0xc1fae48ae1225fce8698503d5bb1378db5ce14f60 GLMR0.0141848
0x373019484edb8f29f3fc3929a198dbb11bcf1fc1fbf63a06f0f28501b4c4a8c1Update13419582022-06-30 9:26:424 hrs 31 mins ago0x45e426d9b501f380db0b1c323b57b0b7cf380cf9 IN  0xc1fae48ae1225fce8698503d5bb1378db5ce14f60 GLMR0.0141824
0xcc2a38eef1a34bbfc7266656dc2fdb7f08e3f4f53695939dc0794a19a586bb96Update13414712022-06-30 7:42:246 hrs 16 mins ago0x45e426d9b501f380db0b1c323b57b0b7cf380cf9 IN  0xc1fae48ae1225fce8698503d5bb1378db5ce14f60 GLMR0.0141814
0xafb1bbbcabddf5c4a94d71946260ce1d46f060a9cd9b17d89b695239b927836cUpdate13413702022-06-30 7:20:306 hrs 38 mins ago0x45e426d9b501f380db0b1c323b57b0b7cf380cf9 IN  0xc1fae48ae1225fce8698503d5bb1378db5ce14f60 GLMR0.0141824
0x3552ef74246785d06bb78e0594ab304aa3007ae0a1b0d1d40ab358d835ec54faUpdate13408772022-06-30 5:36:188 hrs 22 mins ago0x45e426d9b501f380db0b1c323b57b0b7cf380cf9 IN  0xc1fae48ae1225fce8698503d5bb1378db5ce14f60 GLMR0.014179
0x0e8346a6b527ee4aa4516329bb9b9e469a4e0c0eec6281d2dcd663c63385e50cUpdate13406492022-06-30 4:47:369 hrs 11 mins ago0x45e426d9b501f380db0b1c323b57b0b7cf380cf9 IN  0xc1fae48ae1225fce8698503d5bb1378db5ce14f60 GLMR0.0141814
0x33a3ffad77e6fb35a6103e4e5fd12ac8120775dcbaa592cb476f4f1ade1fa634Update13401722022-06-30 3:04:5410 hrs 53 mins ago0x45e426d9b501f380db0b1c323b57b0b7cf380cf9 IN  0xc1fae48ae1225fce8698503d5bb1378db5ce14f60 GLMR0.0141814
0xc8a1e17a8968ef6a2da55e243bb0ef1c6f1e678dcc86b7d4911e010c8e31ced0Update13401222022-06-30 2:54:4811 hrs 3 mins ago0x45e426d9b501f380db0b1c323b57b0b7cf380cf9 IN  0xc1fae48ae1225fce8698503d5bb1378db5ce14f60 GLMR0.014179
0x97ce58dec8aeb55f8964aacf0a4d354a26dfe12f8c1e5d0a174a59c4420df444Update13389172022-06-29 22:41:1815 hrs 17 mins ago0x45e426d9b501f380db0b1c323b57b0b7cf380cf9 IN  0xc1fae48ae1225fce8698503d5bb1378db5ce14f60 GLMR0.0141814
0xad6ae88aa8079af313f8cd4576a5a4ff838284987a1daf3d43643d3fdc74b584Update13388862022-06-29 22:34:3615 hrs 24 mins ago0x45e426d9b501f380db0b1c323b57b0b7cf380cf9 IN  0xc1fae48ae1225fce8698503d5bb1378db5ce14f60 GLMR0.0141848
0x36eb5d189c76f2c6e3a5dd981efb646ca7db0c02af62a611a95db3946f0fb80cUpdate13385322022-06-29 21:20:3616 hrs 38 mins ago0x45e426d9b501f380db0b1c323b57b0b7cf380cf9 IN  0xc1fae48ae1225fce8698503d5bb1378db5ce14f60 GLMR0.01418
0x1d0a440ea45da528ab9d6d26b4598e7f9030bf50b4ec657d45fe720daf29bdc0Update13383622022-06-29 20:45:1217 hrs 13 mins ago0x45e426d9b501f380db0b1c323b57b0b7cf380cf9 IN  0xc1fae48ae1225fce8698503d5bb1378db5ce14f60 GLMR0.0141848
0x65e0a62d977271b115e162e38736f5aaa7f0d4d5efb87a9b08f0ecedeeba98f4Update13378292022-06-29 18:52:0019 hrs 6 mins ago0x45e426d9b501f380db0b1c323b57b0b7cf380cf9 IN  0xc1fae48ae1225fce8698503d5bb1378db5ce14f60 GLMR0.0141848
0x02e4503000f798fcc1dcdd9bf725768d2d5385932a0f349b3d1e3dfa70abf355Update13377892022-06-29 18:43:4219 hrs 14 mins ago0x45e426d9b501f380db0b1c323b57b0b7cf380cf9 IN  0xc1fae48ae1225fce8698503d5bb1378db5ce14f60 GLMR0.014179
0xb401d1a7db8670ccd280acba05fbbb9dfb79958b44e8a9dfce6292536bc37f36Update13377392022-06-29 18:33:0019 hrs 25 mins ago0x45e426d9b501f380db0b1c323b57b0b7cf380cf9 IN  0xc1fae48ae1225fce8698503d5bb1378db5ce14f60 GLMR0.014179
0x7c1591c0a7d29ddf460bf20e6b0b1e46f320eda1aeb7bebae6e10f4e6f7505a3Update13376802022-06-29 18:19:3019 hrs 39 mins ago0x45e426d9b501f380db0b1c323b57b0b7cf380cf9 IN  0xc1fae48ae1225fce8698503d5bb1378db5ce14f60 GLMR0.0141848
0xc6809392de2893e31d642dead7b06f815a7d7f730ef9b63c71aa54ae290706d5Update13376152022-06-29 18:06:0019 hrs 52 mins ago0x45e426d9b501f380db0b1c323b57b0b7cf380cf9 IN  0xc1fae48ae1225fce8698503d5bb1378db5ce14f60 GLMR0.014179
[ Download CSV Export 
Parent Txn Hash Block From To Value
Loading
Are you the contract creator? Verify and Publish your contract source code today!
Note: We also found another 11 contracts with exact matching byte codes

Decompile ByteCode Is this a proxy?
0x60806040523661001357610011610017565b005b6100115b61002761002261002f565b61005f565b565b3b151590565b600061005a7f0000000000000000000000003009c99d370b780304d2098196f1ebf779a4777a610083565b905090565b3660008037600080366000845af43d6000803e80801561007e573d6000f35b3d6000fd5b6040516000908190819073ffffffffffffffffffffffffffffffffffffffff85169082818181855afa9150503d80600081146100db576040519150601f19603f3d011682016040523d82523d6000602084013e6100e0565b606091505b509150915081819061018a576040517f08c379a00000000000000000000000000000000000000000000000000000000081526004018080602001828103825283818151815260200191508051906020019080838360005b8381101561014f578181015183820152602001610137565b50505050905090810190601f16801561017c5780820380516001836020036101000a031916815260200191505b509250505060405180910390fd5b508080602001905160208110156101a057600080fd5b505194935050505056fea164736f6c6343000706000a
Block Transaction Gas Used Reward
Age Block Fee Address BC Fee Address Voting Power Jailed Incoming
Block Uncle Number Difficulty Gas Used Reward
Loading
Make sure to use the "Vote Down" button for any spammy posts, and the "Vote Up" for interesting conversations.